Simultaneous Nadir Overpasses (SNOs) Predictions

Prediction of SNOs between FY3D and TERRA Satellite Orbit:

Table of predicted SNOs for the next 14.0 days since TLE Epoch: 3/2/2024
Index Date (FY3D) Time (FY3D) Lat,Lon (FY3D) SZA (FY3D ) Date (TERRA) Time (TERRA) Lat,Lon (TERRA) SZA (TERRA ) Distance(km) Time Diff (sec)
1 03/04/2024 08:29:20 75.12, 52.64 81.26 03/04/2024 08:30:13 75.12, 52.73 81.24 2.76 53
2 03/04/2024 09:20:03 -75.04,-139.78 98.85 03/04/2024 09:19:38 -75.02,-139.86 98.87 3.06 25
3 03/06/2024 20:33:08 -75.11, 51.77 99.73 03/06/2024 20:33:25 -75.11, 51.90 99.74 3.57 17
4 03/06/2024 21:23:52 75.01,-140.62 80.15 03/06/2024 21:22:47 75.01,-140.70 80.16 2.41 65
5 03/09/2024 07:46:12 -75.15,-116.56 100.66 03/09/2024 07:47:13 -75.14,-116.53 100.68 1.72 61
6 03/09/2024 08:36:57 75.10, 50.91 79.27 03/09/2024 08:36:34 75.08, 51.00 79.26 2.70 23
7 03/11/2024 19:50:01 75.14,-117.43 78.35 03/11/2024 19:50:21 75.14,-117.35 78.34 2.29 20
8 03/11/2024 20:40:44 -75.05, 50.13 101.76 03/11/2024 20:39:46 -75.03, 50.04 101.78 3.54 58
9 03/14/2024 07:03:05 75.19, 74.20 77.42 03/14/2024 07:04:08 75.16, 74.24 77.39 2.93 63
10 03/14/2024 07:53:48 -75.11,-118.23 102.68 03/14/2024 07:53:32 -75.11,-118.25 102.68 0.63 16



Historial Predications of SNOs between FY3D and TERRA
